www.pogodaiklimat.ru

Погода и климат >> Архив погоды >> Аргентина >> Las Lomitas


ПОГОДА в Las Lomitas

  • Прогноз погоды в Las Lomitas
  • Монитор погоды в Las Lomitas
  • Климат города

АРХИВ ПОГОДЫ в Las Lomitas

Время (UTC), дата Ветер
(напр.,м/с)
 
Видим.   Явления Облачность Т
(С)
Тd
(С)
f
(%)
Тe
(С)
Тes
(С)
Комфортность P
(гПа)
Po
(гПа)
Тmin
(С)
Tmax
(С)
R
(мм)
R24
(мм)
S
(см)
09 15.10 штиль 0 20 км 5/0
[Cs]
+15.0 +13.9 93 +15 +15 1017.8 1002.4
12 15.10 ЮЗ 1 20 км 8/0
[Cs]
+19.4 +14.3 72 +22 +28 комфорт 1017.7 1002.4 +15.0 +20.1 0.0
15 15.10 В 1 20 км 8/0
[Cs]
+24.8 +12.9 48 +27 +46 жарко 1016.4 1001.3
18 15.10 ЮВ 1 20 км 5/0
[Ci fib]
+26.0 +14.2 48 +28 +45 жарко 1009.6 994.6
09 16.10 штиль 0 20 км 3/0
[Ci fib]
+16.4 +14.7 90 +16 +16 1007.2 992.2
12 16.10 СВ 1 20 км 3/0
[Ci]
+23.4 +17.7 70 +29 +36 душно 1008.5 993.6 +16.4 +23.4
15 16.10 СВ 1 20 км 3/0
[Ci]
+30.0 +18.3 50 +35 +56 опасность
солнечного
удара
1007.1 992.2
18 16.10 С 1 20 км 5/5 1500 м
[Cu hum]
+32.4 +18.0 42 +37 +46 очень
душно
1003.0 988.2
21 16.10 штиль 0 20 км 9/0
[Ac As]
+31.2 +21.2 55 +39 +40 очень
душно
1002.2 987.3
00 17.10 СВ 2 20 км ясно +28.2 +18.3 55 +33 +33 очень
душно
1002.3 987.6 +23.4 +33.2
09 17.10 штиль 0 20 км ясно +22.2 +13.9 59 +25 +25 комфорт 1002.6 988.0
12 17.10 СВ 2 20 км ясно +30.0 +23.4 68 +41 +47 опасность
перегрева
1003.1 988.5 +22.2 +30.0
15 17.10 С 3 20 км 4/4 1200 м
[Cu hum]
+34.1 +21.6 48 +42 +52 опасность
перегрева
1002.7 988.2
18 17.10 СВ 2 20 км 6/6 1500 м
[Cu hum]
+36.8 +22.9 45 +46 +53 опасность
перегрева
1003.5 989.0
21 17.10 СВ 2 20 км 8/0
[Cs]
+35.8 +22.0 45 +44 +46 опасность
перегрева
1002.6 988.1
00 18.10 штиль 0 20 км ясно +30.9 +21.7 58 +39 +39 очень
душно
1003.4 988.8 +30.0 +37.4
09 18.10 штиль 0 20 км 3/0
[Ci fib]
+26.0 +24.3 90 +36 +36 очень
душно
1003.6 989.2
12 18.10 СЗ 1 20 км ясно +30.2 +23.3 67 +41 +48 опасность
перегрева
1005.6 991.0 +26.0 +30.9
15 18.10 СЗ 1 20 км ясно +37.6 +22.2 41 +46 +69 опасность
перегрева
1005.1 990.8
18 18.10 СВ 1 20 км 5/5 1200 м
[Cu med, cong]
+40.0 +21.7 35 +47 +57 опасность
перегрева
1002.1 987.7
21 18.10 ЮВ 4 20 км 6/6 1200 м
[Cu med, cong]
+34.0 +19.3 42 +39 +40 очень
душно
1002.5 988.0
00 19.10 ЮВ 3 20 км гроза без осадков 8/4 1350 м
[Cb cap Ac As]
+28.4 +19.3 58 +34 +34 очень
душно
1006.2 991.6 +28.4 +40.5
09 19.10 штиль 0 20 км в посл. час дождь 10/10 300 м
[St]
+23.8 +22.6 93 +31 +31 очень
душно
1017.3 1002.5
12 19.10 ЮВ 1 20 км {дождь} 10/10 300 м
[St]
+24.2 +22.1 88 +31 +31 очень
душно
1016.3 1001.4 +23.5 +28.5 0.0
15 19.10 В 1 20 км 10/10 300 м
[St]
+25.2 +21.6 80 +32 +32 очень
душно
1018.0 1003.2
18 19.10 Ю 1 20 км 9/3 1500 м
[Cu hum Ac trans Ci fib]
+29.0 +21.7 65 +37 +45 очень
душно
1012.5 997.6
21 19.10 ЮВ 3 20 км 9/4 1500 м
[Cu hum Cs]
+29.2 +20.9 61 +36 +38 очень
душно
1011.5 996.6
00 20.10 ЮВ 1 20 км 4/0
[Ci fib]
+25.4 +19.9 72 +31 +31 очень
душно
1013.5 998.6 +24.2 +30.4
09 20.10 Ю 3 10 км 8/0
[Ac trans]
+20.9 +19.2 90 +26 +26 душно 1013.5 998.6
12 20.10 ЮВ 1 20 км 9/0
[Ac As]
+22.4 +20.1 87 +29 +31 очень
душно
1014.7 999.7 +19.0 +25.4
15 20.10 ЮВ 2 20 км 5/0
[Ac trans]
+29.6 +17.8 49 +34 +49 очень
душно
1013.6 998.8
18 20.10 В 1 20 км 5/5 1500 м
[Cu hum Ci]
+32.4 +18.0 42 +37 +46 очень
душно
1012.3 997.4
21 20.10 В 1 20 км 5/0
[Ac trans Ci]
+32.0 +17.9 43 +36 +38 очень
душно
1010.8 996.0
00 21.10 штиль 0 20 км 8/0
[Cs]
+27.4 +19.5 62 +33 +33 очень
душно
1012.4 997.4 +22.4 +32.5
09 21.10 штиль 0 20 км 8/0
[Ac trans]
+22.6 +18.2 76 +28 +28 душно 1012.6 997.8
12 21.10 СВ 1 20 км 4/0
[Ac trans]
+27.6 +19.4 61 +33 +39 очень
душно
1014.5 999.7 +22.6 +27.6
15 21.10 СВ 2 20 км 3/3 1500 м
[Cu hum]
+32.8 +18.9 44 +38 +52 опасность
солнечного
удара
1012.8 998.1
18 21.10 СВ 2 20 км 3/3 1500 м
[Cu hum]
+34.8 +19.5 41 +40 +52 опасность
солнечного
удара
1007.3 992.6
21 21.10 штиль 0 20 км 3/0
[Ci fib]
+33.8 +19.5 43 +39 +42 очень
душно
1005.8 991.0
00 22.10 В 3 20 км ясно +29.4 +19.4 55 +35 +35 очень
душно
1006.4 992.6 +27.6 +35.3

 

Местоположение метеостанции Las Lomitas (Аргентина): широта -24.70 долгота -60.58 высота над уровнем моря 130 м.

В архиве по умолчанию представлена погода в Las Lomitas за последнюю неделю. Архивные данные за месяц целиком и за предыдущие месяцы, начиная с января 2011 года, Вы можете получить, выбрав интересующий диапазон дат из раскрывающегося списка и нажав кнопку "Ввод!".


*Определитесь, кто Вы:
робот инопланетянин человек

Внимание! Время в таблицах - всемирное. Для получения местного времени необходимо прибавить поправку, которая в Las Lomitas равна -3 ч.

Смотрите также архив погоды в соседних городах и на ближайших метеорологических станциях:

Погода в Gral. Bruguez (Парагвай) (177 км)
Погода в Pozo Colorado (Парагвай) (225 км)
Погода в Presidencia Roque Saenz Pena (Аргентина) (226 км)
Погода в Prats-Gil (Парагвай) (241 км)
Погода в Formosa (Аргентина) (289 км)
Погода в Mariscal Estigar (Парагвай) (299 км)
Погода в Asuncion (Парагвай) (316 км)
Погода в Pilar (Парагвай) (330 км)
Погода в Resistencia (Аргентина) (342 км)
Погода в Corrientes (Аргентина) (356 км)

Пояснения к столбцам:

Ветер - указаны скорость ветра в м/с - средняя за 10 мин, порывы в срок и между сроками (в фигурных скобках) и направление, откуда дует ветер: С - северный, СВ - северо-восточный, В - восточный, ЮВ - юго-восточный, Ю - южный, ЮЗ - юго-западный, З - западный, СЗ - северо-западный.
Видимость - горизонтальная дальность видимости в метрах или километрах. При видимости от 1 до 10 км при отсутствии осадков обычно наблюдается дымка, при ухудшении видимости до 1 км и менее - туман. В сухую погоду видимость может ухудшаться дымом, пылью или мглою.
Явления - указаны атмосферные явления, наблюдавшиеся в срок или в последний час перед сроком; фигурными скобками обозначены явления, наблюдавшиеся между сроками (за 1-3 часа до срока); квадратными скобками обозначены град или гололедные отложения с указанием их диаметра в мм.
Облачность - указаны через наклонную черту общая и нижняя облачность в баллах и высота нижней границы облаков в метрах; квадратными скобками обозначены формы облаков: Ci - перистые, Cs - перисто-слоистые, Cc - перисто-кучевые, Ac - высококучевые, As - высокослоистые, Sc - слоисто-кучевые, Ns - слоисто-дождевые, Cu - кучевые, Cb - кучево-дождевые. Подробнее классификацию облаков см. в Атласе облаков (PDF).
T - Температура воздуха - температура, измеренная на высоте 2 м над землей.
Td - Температура точки росы - температура, при понижении до которой содержащийся в воздухе водяной пар достигнет насыщения.
f - Относительная влажность воздуха - влажноcть воздуха, измеренная на высоте 2 м над землей.
Te - Эффективная температура - температура, которую ощущает одетый по сезону человек в тени. Характеристика душности погоды. При расчете учитывается влияние влажности воздуха и скорости ветра на теплоощущения человека.
Tes - Эффективная температура на солнце - температура, которую ощущает человек, с поправкой на солнечный нагрев. Характеристика знойности погоды. Зависит от высоты солнца над горизонтом, облачности и скорости ветра. Ночью, в пасмурную погоду, а также при ветре 12 м/с и более поправка равна нулю.
P - Атмосферное давление - приведенное к уровню моря атмосферное давление.
Po - Атмосферное давление - измеренное на уровне метеостанции атмосферное давление.
Tmin - Минимальная температура - минимум температуры воздуха на высоте 2 м над землей.
Tmax - Максимальная температура - максимум температуры воздуха на высоте 2 м над землей.
R - Количество осадков - Количество выпавших осадков за период времени, мм. При наведении курсора мыши на число - период времени, за который выпало указанное количество осадков.
R24 - Количество осадков - Количество выпавших осадков за 24 часа, мм.
S - Снежный покров - Высота снежного покрова, см. При наведении курсора мыши на число - состояние снежного покрова и степень покрытия местности в баллах.